Regional Weather Roundup
Issued by NWS

Home | Current Version | Previous Version | Graphics & Text | Print | Product List | Glossary On
Versions: 1 2 3 4 5 6 7 8 9 10 11 12 13 14 15 16 17 18 19 20 21 22 23 24 25 26 27 28 29 30 31 32 33 34 35 36 37 38 39 40 41 42 43 44 45 46 47 48 49 50
000
ASUS43 KOAX 121502
RWRNE

WEATHER ROUNDUP FOR NEBRASKA
NATIONAL WEATHER SERVICE OMAHA NE
900 AM CST TUE DEC 12 2017

NOTES: SATELLITE DATA IS BEING USED TO AUGMENT CLOUD COVER ABOVE
       12000 FEET.
       "FAIR" INDICATES FEW OR NO CLOUDS BELOW 12,000 FEET WITH NO
       SIGNIFICANT WEATHER AND/OR OBSTRUCTIONS TO VISIBILITY.


NEZ001>004-019>022-054>056-121600-
NEBRASKA PANHANDLE

CITY           SKY/WX    TMP DP  RH WIND       PRES   REMARKS
SCOTTSBLUFF    CLOUDY    26  16  65 NW12      30.27F WCI  16
ALLIANCE       CLOUDY    24  18  77 W7        30.23F WCI  16
CHADRON        CLOUDY    32  19  58 SW9       30.23F WCI  24
GORDON         FAIR      32  22  66 W5        30.20F WCI  27
KIMBALL        CLOUDY    38  15  38 W14       30.30S WCI  30
SIDNEY         CLOUDY    33  17  51 W12       30.27F WCI  24
$$

NEZ057>060-069>072-079>082-121600-
SOUTHWEST NEBRASKA

CITY           SKY/WX    TMP DP  RH WIND       PRES   REMARKS
NORTH PLATTE   CLEAR     20  17  88 W5        30.28F WCI  13
IMPERIAL       CLEAR     30  16  56 W8        30.28F WCI  22
LEXINGTON      CLOUDY    23  19  85 NW5       30.30F WCI  16
MCCOOK         CLOUDY    22  16  78 W5        30.31F WCI  16
OGALLALA       CLOUDY    21  15  77 SW3       30.28F
$$

NEZ005>010-023>029-035>040-094-121600-
NORTH CENTRAL NEBRASKA

CITY           SKY/WX    TMP DP  RH WIND       PRES   REMARKS
VALENTINE      CLOUDY    24  20  84 SW9       30.21F WCI  14
AINSWORTH      CLOUDY    27  24  91 W9        30.21F WCI  17
BROKEN BOW     CLOUDY    28  22  78 SW5       30.25F WCI  23
O`NEILL        CLEAR     29  27  92 W6        30.23F WCI  23
ORD            CLOUDY    27  23  85 W3        30.26F
THEDFORD       CLOUDY    24  21  87 W6        30.24F WCI  17
$$

NEZ041-046>049-061>064-073>077-083>087-121600-
SOUTH CENTRAL NEBRASKA

CITY           SKY/WX    TMP DP  RH WIND       PRES   REMARKS
GRAND ISLAND   CLOUDY    28  25  88 W12       30.30F WCI  18
AURORA         CLOUDY    30  27  88 W8        30.29F WCI  22
HASTINGS       CLOUDY    26  21  81 W9        30.30F WCI  17
HEBRON         CLOUDY    32  28  84 SW3       30.34S
HOLDREGE       CLOUDY    27  24  88 W7        30.30F WCI  19
KEARNEY        CLOUDY    28  23  81 W7        30.30F WCI  21
YORK           CLOUDY    30  28  93 SW7       30.30S WCI  23
$$

NEZ011>018-030>034-042>045-121600-
NORTHEAST NEBRASKA

CITY           SKY/WX    TMP DP  RH WIND       PRES   REMARKS
NORFOLK        CLOUDY    21  20  96 SE3       30.25F
ALBION         PTCLDY    27  25  90 CALM      30.26F
BLAIR          CLOUDY    19  15  85 NW3       30.28F
COLUMBUS       CLOUDY    19  17  92 CALM      30.29F
FREMONT        CLOUDY    19  15  86 CALM      30.30F
TEKAMAH        CLOUDY    16  12  84 CALM      30.31F
WAYNE          CLOUDY    19  17  91 CALM      30.27S
$$

NEZ050>053-065>068-078-088>093-121600-
SOUTHEAST NEBRASKA

CITY           SKY/WX    TMP DP  RH WIND       PRES   REMARKS
LINCOLN        CLOUDY    22  18  85 CALM      30.33F
OMAHA EPPLEY   CLOUDY    20  14  77 CALM      30.32F
BEATRICE       CLOUDY    23  20  90 CALM      30.33F
FALLS CITY     CLOUDY    21  14  74 NW8       30.34F WCI  11
NEBRASKA CITY  CLOUDY    20  17  89 W5        30.33S WCI  13
PLATTSMOUTH    CLOUDY    19  16  86 NW3       30.32R
$$

NEZ044-045-051>053-067-121600-
OMAHA AREA

CITY           SKY/WX    TMP DP  RH WIND       PRES   REMARKS
OMAHA EPPLEY   CLOUDY    20  14  77 CALM      30.32F
BLAIR          CLOUDY    19  15  85 NW3       30.28F
FREMONT        CLOUDY    19  15  86 CALM      30.30F
MILLARD        CLOUDY    22  16  79 CALM      30.32F
OFFUTT AFB     CLOUDY    20  14  78 W3        30.31F
PLATTSMOUTH    CLOUDY    19  16  86 NW3       30.32R
WAHOO          FAIR      20  15  82 CALM      30.31
$$




USA.gov is the U.S. government's official web portal to all federal, state and local government web resources and services.